Location: Altavilla Irpina
(41.0000°N, 14.7833°E)
Time: 06:56:52
(UTC+00:00)

Cosmos 1900 - Pass Details

Date: 19 May 2025
Orbit: 677 x 738 km, 66.1° (Epoch: 22 June)

Event Time Altitude Azimuth Distance (km) Brightness Sun altitude
Rises 20:34:44 0° 329° (NNW) 3,159 9.3 -20.6°
Reaches altitude 10° 20:37:06 10° 329° (NNW) 2,240 8.1 -20.9°
Maximum altitude 20:42:14 88° 243° (WSW) 742 4.3 -21.4°
Enters shadow 20:43:32 52° 153° (SSE) 916 4.5 -21.6°
